Location: Dallas
(32.7833°N, 96.8000°W)
Time: 09:42:41
(UTC-05:00)

Hubble Space Telescope - Visible Passes

Search period start: 29 September 2022 00:00
Search period end: 09 October 2022 00:00
Orbit: 531 x 535 km, 28.5° (Epoch: 29 September)

Date Brightness Start Highest point End Pass type
(mag) Time Alt. Az. Time Alt. Az. Time Alt. Az.
29 Sep 1.4 20:40:30 10° WSW 20:44:22 42° S 20:45:03 38° SSE visible
30 Sep 1.6 20:28:17 10° WSW 20:32:07 39° S 20:33:29 29° SE visible
01 Oct 1.8 20:16:05 10° WSW 20:19:50 35° S 20:21:56 21° SE visible
02 Oct 2.0 20:03:53 10° WSW 20:07:32 32° SSW 20:10:26 14° SE visible
03 Oct 2.3 19:51:43 10° WSW 19:55:15 28° SSW 19:58:46 10° SE visible
04 Oct 2.6 19:39:34 10° WSW 19:42:55 24° SSW 19:46:16 10° SE visible
05 Oct 2.9 19:27:28 10° WSW 19:30:35 21° SSW 19:33:42 10° SSE visible
